www.pogodaiklimat.ru
ПОГОДА в Ошкоше
Время
(UTC), дата
10:49 19.11
10:53 19.11
11:53 19.11
12:53 19.11
13:36 19.11
13:53 19.11
14:53 19.11
15:53 19.11
16:53 19.11
17:53 19.11
18:53 19.11
19:49 19.11
19:53 19.11
20:36 19.11
20:53 19.11
21:53 19.11
22:53 19.11
23:22 19.11
23:53 19.11
00:19 19.11
00:53 19.11
01:18 19.11
01:40 19.11
01:53 19.11
02:34 19.11
02:53 19.11
03:53 19.11
04:53 19.11
05:31 20.11
05:53 20.11
06:10 20.11
06:27 20.11
06:53 20.11
07:53 20.11
08:53 20.11
09:53 20.11
10:53 20.11
11:53 20.11
12:20 20.11
12:40 20.11
12:53 20.11
13:00 20.11
13:53 20.11
14:53 20.11
15:11 20.11
15:53 20.11
16:53 20.11
17:53 20.11
Ветер
(напр.,м/с)
Видим. Явления Облачность Т
(С)
Тd
(С)
f
(%)
Тe
(С)
Тes
(С)
Комфортность P
(гПа)
Po
(гПа)
Тmin
(С)
Tmax
(С)
R
(мм)
R24
(мм)
S
(см)
0 11 км 10/10 270 м 0.0 -2.0 86 -1 -1 978.0
0 13 км 10/10 270 м 0.0 -2.2 85 -1 -1 1008.3 978.0 0.0 0.0
0 13 км 10/10 270 м 0.0 -1.7 88 -1 -1 1008.7 978.3
0 11 км 10/10 270 м 0.0 -2.2 85 -1 -1 1009.3 978.9
0 11 км 10/10 300 м 0.0 -1.7 88 -1 -1 978.9
0 11 км 10/10 330 м 0.0 -2.2 85 -1 -1 1009.6 979.3
0 13 км 10/10 360 м +0.6 -2.2 81 -0 -0 1010.3 979.9
З 3 14 км 10/10 360 м +0.6 -2.2 81 -4 -4 1010.6 980.3
З 2 13 км 10/10 360 м +1.1 -2.2 79 -3 -3 1010.7 980.3 0.0 +1.1
0 13 км 10/10 360 м +1.1 -1.7 82 0 0 1010.8 980.3
0 13 км 10/10 360 м +1.7 -1.7 78 +1 +1 1011.1 980.6
З 1 10 км мгла 10/10 450 м +2.0 -1.0 80 -1 -1 981.6
0 10 км мгла 10/10 450 м +1.7 -1.7 78 +1 +1 1011.9 981.6
ЮВ 1 10 км дымка 10/10 390 м +1.1 -1.1 85 -2 -2 982.2
ЮВ 1 10 км дымка 10/10 360 м +0.6 -1.1 88 -2 -2 1013.0 982.6
0 6 км дымка 10/10 360 м +0.6 -0.6 92 -1 -1 1013.5 982.9
Ю 1 8 км дымка 10/10 360 м +0.6 -1.1 88 -2 -2 1013.8 983.2 +0.6 +1.7
0 11 км 10/10 300 м +0.6 -1.1 88 -1 -1 983.5
0 11 км 10/10 690 м +0.6 -0.6 92 -1 -1 1014.6 983.9
0 10 км дымка 10/10 630 м +0.6 -1.1 88 -1 -1 983.9
0 10 км дымка 10/10 1020 м +0.6 -0.6 92 -1 -1 1014.8 984.2
Ю 1 10 км дымка 10/10 480 м +0.6 -0.6 92 -2 -2 984.2
Ю 1 10 км дымка 10/10 480 м +0.6 -0.6 92 -2 -2 984.5
Ю 2 10 км дымка 10/10 960 м +0.6 -0.6 92 -4 -4 1015.3 984.5
0 11 км 10/10 270 м +1.1 -0.6 88 -0 -0 984.9
0 11 км 10/10 210 м +1.1 0.0 92 -0 -0 1015.4 984.9
0 10 км дымка 10/10 240 м +1.1 0.0 92 -0 -0 1016.0 985.5
0 11 км 10/10 270 м +1.7 0.0 88 +1 +1 1016.9 986.5 +0.6 +1.7
0 11 км 10/10 240 м +1.7 0.0 88 +1 +1 986.5
0 11 км 10/10 240 м +1.7 0.0 88 +1 +1 1017.3 986.8
0 11 км 10/10 240 м +1.7 0.0 88 +1 +1 987.2
ЮЗ 1 10 км дымка 10/10 270 м +1.7 0.0 88 -1 -1 987.5
0 10 км дымка 10/10 1260 м +1.7 +0.6 92 +1 +1 1018.0 987.5
0 8 км дымка 10/10 1200 м +1.1 0.0 92 -0 -0 1018.5 987.8
0 8 км дымка 10/10 1170 м +1.7 +0.6 92 +1 +1 1019.1 988.5
0 8 км дымка 10/10 1080 м +1.7 +0.6 92 +1 +1 1019.8 989.1
0 8 км дымка 10/10 990 м +1.7 +0.6 92 +1 +1 1020.4 989.8 +1.1 +1.7
0 6 км дымка 10/10 930 м +1.7 +0.6 92 +1 +1 1020.7 990.1
Ю 1 4 км дымка 10/10 150 м +1.7 +0.6 92 -1 -1 990.1
0 5 км дымка 10/10 900 м +1.7 +0.6 92 +1 +1 990.5
Ю 1 4 км дымка 10/10 900 м +1.7 +1.1 96 -1 -1 1021.2 990.5
Ю 1 5 км дымка 10/10 930 м +2.2 +1.1 92 -1 -1 990.5
Ю 1 5 км дымка 10/10 930 м +2.8 +1.7 92 0 0 1021.3 990.8
ЮЗ 1 6 км дымка 10/10 930 м +3.9 +2.2 89 +2 +2 1021.8 991.1
Ю 3 8 км дымка 10/10 180 м +3.9 +2.2 89 -0 -0 991.1
Ю 3 10 км дымка 10/10 960 м +5.0 +2.8 86 +1 +1 1021.2 990.8
Ю 3 13 км 2/2 360 м +6.7 +3.3 79 +3 +6 1020.8 990.5 +1.7 +6.7
Ю 4 16 км 5/2 510 м
[средняя]
+7.2 +2.8 74 +4 +5 1020.4 990.1
Местоположение метеостанции Wittman Regional Airport: широта 43.9667 долгота -88.5581 высота над уровнем моря 246 м.
В архиве по умолчанию представлена погода в Ошкоше за последние 1-2 суток. Обновление информации о фактической погоде в базе происходит ежечасно! Архивные данные за месяц целиком и за предыдущие месяцы Вы можете получить, выбрав интересующий диапазон дат из раскрывающегося списка и нажав кнопку "Ввод!".
Внимание! Архив погоды МЕТАР в базе сайта по станциям, не включенным в климатический монитор, хранится не более 60 дней. Нет смысла пытаться выбрать более раннюю дату.
*Определитесь, кто Вы:
Внимание! Время в таблицах - всемирное. Для получения местного времени необходимо прибавить поправку, которая равна ч.
Смотрите также архив погоды в соседних городах и на ближайших метеорологических станциях:
Партнеры нашего сайта:      
Пояснения к столбцам:
  • Ветер - указаны скорость ветра в м/с - средняя за 10 мин, порывы в срок и между сроками (в фигурных скобках) и направление, откуда дует ветер: С - северный,
  • СВ - северо-восточный, В - восточный, ЮВ - юго-восточный, Ю - южный, ЮЗ - юго-западный, З - западный, СЗ - северо-западный.
  • Видимость - горизонтальная дальность видимости в метрах или километрах. При видимости от 1 до 10 км при отсутствии осадков обычно наблюдается дымка, при ухудшении видимости до 1 км и менее - туман. В сухую погоду видимость может ухудшаться дымом, пылью или мглою.
  • Явления - указаны атмосферные явления, наблюдавшиеся в срок или в последний час перед сроком; фигурными скобками обозначены явления, наблюдавшиеся между сроками (за 1-3 часа до срока); квадратными скобками обозначены град или гололедные отложения с указанием их диаметра в мм.
  • Облачность - указаны через наклонную черту общая и нижняя облачность в баллах и высота нижней границы облаков в метрах; квадратными скобками обозначены формы облаков: Ci - перистые, Cs - перисто-слоистые, Cc - перисто-кучевые, Ac - высококучевые, As - высокослоистые, Sc - слоисто-кучевые, Ns - слоисто-дождевые, Cu - кучевые, Cb - кучево-дождевые. Подробнее классификацию облаков см. в Атласе облаков (PDF).
  • T - Температура воздуха - температура, измеренная на высоте 2 м над землей.
  • Td - Температура точки росы - температура, при понижении до которой содержащийся в воздухе водяной пар достигнет насыщения.
  • f - Относительная влажность воздуха - влажноcть воздуха, измеренная на высоте 2 м над землей.
  • Te - Эффективная температура - температура, которую ощущает одетый по сезону человек в тени. Характеристика душности погоды. При расчете учитывается влияние влажности воздуха и скорости ветра на теплоощущения человека.
  • Tes - Эффективная температура на солнце - температура, которую ощущает человек, с поправкой на солнечный нагрев. Характеристика знойности погоды. Зависит от высоты солнца над горизонтом, облачности и скорости ветра. Ночью, в пасмурную погоду, а также при ветре 12 м/с и более поправка равна нулю.
  • P - Атмосферное давление - приведенное к уровню моря атмосферное давление.
  • Po - Атмосферное давление - измеренное на уровне метеостанции атмосферное давление.
  • Tmin - Минимальная температура - минимум температуры воздуха на высоте 2 м над землей.
  • Tmax - Максимальная температура - максимум температуры воздуха на высоте 2 м над землей.
  • R - Количество осадков - Количество выпавших осадков за период времени, мм. При наведении курсора мыши на число - период времени, за который выпало указанное количество осадков.
  • R24 - Количество осадков - Количество выпавших осадков за 24 часа, мм.
  • S - Снежный покров - Высота снежного покрова, см. При наведении курсора мыши на число - состояние снежного покрова и степень покрытия местности в баллах.